Location: Arroyo de Valdeoliva
(40.1604°N, 4.9878°W)
Time: 18:44:45
(UTC+00:00)

NOAA 6 - Pass Details

Date: 11 December 2025
Orbit: 767 x 781 km, 98.6° (Epoch: 15 January)

Event Time Altitude Azimuth Distance (km) Brightness Sun altitude
Rises 19:01:59 0° 163° (SSE) 3,234 7.2 -23.6°
Reaches altitude 10° 19:04:17 10° 162° (SSE) 2,309 6.4 -24.0°
Maximum altitude 19:09:22 83° 76° (ENE) 782 3.8 -25.0°
Drops below altitude 10° 19:14:29 10° 348° (NNW) 2,317 6.5 -26.0°
Sets 19:16:48 0° 348° (NNW) 3,247 7.3 -26.4°
